Radioactive Concentration measured by Seawater Radiation Monitor near Fukushima Daiichi Nuclear Power Station
Date,Time,Cs137(Bq/L),Cs134(Bq/L),Total β(Bq/L)
2016/12/22,00:00,0.77,0.070,ND
2016/12/22,00:10,0.80,0.067,ND
2016/12/22,00:20,0.80,0.071,ND
2016/12/22,00:30,0.78,0.064,ND
2016/12/22,00:40,0.81,0.065,ND
2016/12/22,00:50,0.83,0.055,ND
2016/12/22,01:00,0.82,0.058,ND
2016/12/22,01:10,0.80,0.060,ND
2016/12/22,01:20,0.82,0.050,ND
2016/12/22,01:30,0.84,0.061,ND
2016/12/22,01:40,0.82,0.067,ND
2016/12/22,01:50,0.80,0.069,ND
2016/12/22,02:00,0.79,0.078,ND
2016/12/22,02:10,0.80,0.087,ND
2016/12/22,02:20,0.78,0.090,ND
2016/12/22,02:30,0.83,0.099,ND
2016/12/22,02:40,0.84,0.093,ND
2016/12/22,02:50,0.83,0.079,ND
2016/12/22,03:00,0.85,0.12,ND
2016/12/22,03:10,0.90,0.086,ND
2016/12/22,03:20,0.87,0.071,ND
2016/12/22,03:30,0.84,0.083,ND
2016/12/22,03:40,0.83,0.082,ND
2016/12/22,03:50,0.84,0.078,ND
2016/12/22,04:00,0.82,0.074,ND
2016/12/22,04:10,0.82,0.078,ND
2016/12/22,04:20,0.85,0.070,ND
2016/12/22,04:30,0.87,0.060,ND
2016/12/22,04:40,0.86,0.11,ND
2016/12/22,04:50,0.90,0.080,ND
2016/12/22,05:00,0.85,0.11,ND
2016/12/22,05:10,0.85,0.10,ND
2016/12/22,05:20,0.86,0.061,ND
2016/12/22,05:30,0.85,0.061,ND
2016/12/22,05:40,0.83,0.064,ND
2016/12/22,05:50,0.81,0.073,ND
2016/12/22,06:00,0.82,0.062,ND
2016/12/22,06:10,0.79,0.073,ND
2016/12/22,06:20,0.81,0.094,ND
2016/12/22,06:30,0.80,0.099,ND
2016/12/22,06:40,0.76,0.12,ND
2016/12/22,06:50,0.77,0.073,ND
2016/12/22,07:00,0.76,0.074,ND
2016/12/22,07:10,0.77,0.074,ND
2016/12/22,07:20,0.78,0.074,ND
2016/12/22,07:30,0.78,0.077,ND
2016/12/22,07:40,0.77,0.077,ND
2016/12/22,07:50,0.79,0.12,ND
2016/12/22,08:00,0.79,0.12,ND
2016/12/22,08:10,0.81,0.063,ND
2016/12/22,08:20,0.79,0.071,ND
2016/12/22,08:30,0.78,0.068,ND
2016/12/22,08:40,0.78,0.064,ND
2016/12/22,08:50,0.76,0.070,ND
2016/12/22,09:00,0.75,0.070,ND
2016/12/22,09:10,0.73,0.084,ND
2016/12/22,09:20,0.75,0.076,ND
2016/12/22,09:30,0.77,0.073,ND
2016/12/22,09:40,0.78,0.068,ND
2016/12/22,09:50,0.79,0.069,ND
2016/12/22,10:00,0.80,0.067,ND
2016/12/22,10:10,0.80,0.061,ND
2016/12/22,10:20,0.78,0.069,ND
2016/12/22,10:30,0.79,0.066,ND
2016/12/22,10:40,0.79,0.067,ND
2016/12/22,10:50,0.81,0.061,ND
2016/12/22,11:00,0.79,0.070,ND
2016/12/22,11:10,0.81,0.11,ND
2016/12/22,11:20,0.83,0.10,ND
2016/12/22,11:30,0.83,0.092,ND
2016/12/22,11:40,0.78,0.075,ND
2016/12/22,11:50,0.79,0.081,ND
2016/12/22,12:00,0.82,0.075,ND
2016/12/22,12:10,0.83,0.076,ND
2016/12/22,12:20,0.83,0.077,ND
2016/12/22,12:30,0.83,0.077,ND
2016/12/22,12:40,0.84,0.075,ND
2016/12/22,12:50,0.83,0.075,ND
2016/12/22,13:00,0.84,0.076,ND
2016/12/22,13:10,0.81,0.080,ND
2016/12/22,13:20,0.83,0.077,ND
2016/12/22,13:30,0.86,0.068,ND
2016/12/22,13:40,0.86,0.075,ND
2016/12/22,13:50,0.87,0.081,ND
2016/12/22,14:00,0.86,0.080,ND
2016/12/22,14:10,0.87,0.074,ND
2016/12/22,14:20,0.86,0.077,ND
2016/12/22,14:30,0.85,0.082,ND
2016/12/22,14:40,0.84,0.085,ND
2016/12/22,14:50,0.83,0.084,ND
2016/12/22,15:00,0.83,0.084,ND
2016/12/22,15:10,0.82,0.086,ND
2016/12/22,15:20,0.85,0.083,ND
2016/12/22,15:30,0.83,0.084,ND
2016/12/22,15:40,0.85,0.084,ND
2016/12/22,15:50,0.87,0.085,ND
2016/12/22,16:00,0.88,0.082,ND
2016/12/22,16:10,0.89,0.086,ND
2016/12/22,16:20,0.90,0.089,ND
2016/12/22,16:30,0.94,0.11,ND
2016/12/22,16:40,0.94,0.10,ND
2016/12/22,16:50,0.91,0.11,ND
2016/12/22,17:00,0.88,0.10,ND
2016/12/22,17:10,0.91,0.12,ND
2016/12/22,17:20,0.89,0.11,ND
2016/12/22,17:30,0.86,0.12,ND
2016/12/22,17:40,0.83,0.15,ND
2016/12/22,17:50,0.84,0.10,ND
2016/12/22,18:00,0.86,0.13,ND
2016/12/22,18:10,0.80,0.13,ND
2016/12/22,18:20,0.81,0.12,ND
2016/12/22,18:30,0.87,0.099,ND
2016/12/22,18:40,0.84,0.099,ND
2016/12/22,18:50,0.85,0.088,ND
2016/12/22,19:00,0.88,0.080,ND
2016/12/22,19:10,0.87,0.12,ND
2016/12/22,19:20,0.86,0.13,ND
2016/12/22,19:30,0.85,0.13,ND
2016/12/22,19:40,0.87,0.091,ND
2016/12/22,19:50,0.86,0.093,ND
2016/12/22,20:00,0.85,0.087,ND
2016/12/22,20:10,0.85,0.089,8.8
2016/12/22,20:20,0.84,0.086,ND
2016/12/22,20:30,0.81,0.10,10
2016/12/22,20:40,0.82,0.091,9.2
2016/12/22,20:50,0.83,0.089,ND
2016/12/22,21:00,0.82,0.090,ND
2016/12/22,21:10,0.85,0.079,ND
2016/12/22,21:20,0.87,0.080,ND
2016/12/22,21:30,0.88,0.070,ND
2016/12/22,21:40,0.88,0.071,ND
2016/12/22,21:50,0.89,0.060,ND
2016/12/22,22:00,0.89,0.064,ND
2016/12/22,22:10,0.86,0.066,ND
2016/12/22,22:20,0.86,0.057,ND
2016/12/22,22:30,0.86,0.060,ND
2016/12/22,22:40,0.87,0.061,ND
2016/12/22,22:50,0.85,0.073,ND
2016/12/22,23:00,0.85,0.071,9.6
2016/12/22,23:10,0.85,0.074,12
2016/12/22,23:20,0.83,0.084,ND
2016/12/22,23:30,0.82,0.094,ND
2016/12/22,23:40,0.83,0.12,ND
2016/12/22,23:50,0.81,0.13,11
